Weather Conditions for:
Los Angeles, Los Angeles International Airport, CA (KLAX)
Elev: 125 ft; Latitude: 33.93806; Longitude: -118.38889

Time, Temp, Dew Pt., Relative Humidity, Wind Direction, Wind Speed
(PST) (f) (f) (%) (mph)
18 Feb 8:08 pm 55 52 88 SE 10
18 Feb 7:53 pm 55 52 89 SE 12
18 Feb 7:26 pm 54 52 94 SE 9
18 Feb 7:04 pm 54 52 94 SE 16G26
18 Feb 6:53 pm 54 51 90 SE 18G24
18 Feb 6:36 pm 54 52 94 ESE 15G26
18 Feb 6:09 pm 54 52 94 ESE 21G26
18 Feb 6:00 pm 54 52 94 ESE 16G28
18 Feb 5:53 pm 54 51 90 SE 21G31
18 Feb 5:50 pm 54 52 94 SE 24G31
18 Feb 5:42 pm 54 52 94 ESE 20G31
18 Feb 5:31 pm 54 50 88 ESE 25G36
18 Feb 5:18 pm 54 50 88 ESE 24G33
18 Feb 5:08 pm 55 50 82 ESE 23G32
18 Feb 4:53 pm 55 49 80 ESE 16G29
18 Feb 4:31 pm 55 48 77 SE 20G25
18 Feb 3:53 pm 55 48 77 ESE 16
18 Feb 2:53 pm 59 41 51 S 15G22
18 Feb 1:53 pm 59 39 48 SSE 15
18 Feb 12:53 pm 60 42 51 SE 13G23
18 Feb 11:53 am 59 39 48 ESE 13
18 Feb 10:53 am 59 40 49 ESE 15G25
18 Feb 9:53 am 59 39 48 E 15G22
18 Feb 8:53 am 55 39 55 E 14
18 Feb 7:53 am 53 38 56 ESE 7
18 Feb 6:53 am 50 39 66 E 6
18 Feb 5:53 am 50 39 66 ENE 9
18 Feb 4:53 am 49 39 69 E 5
18 Feb 3:53 am 50 37 62 E 3
18 Feb 2:53 am 50 39 66 E 5
18 Feb 1:53 am 50 39 66 E 6
18 Feb 12:53 am 53 39 59 ESE 3

http://www.wrh.noaa.gov/mesowest/getobext.php?wfo=lox&sid=KLAX&num=168&raw=0&dbn=m